Lewis Run, PA

4:37 AM EST on February 27, 2017 (GMT -0500)
Bradford Regional

Weather History for KBFD - July, 2014

Change the Weather History Date:

Thursday, July 24, 2014

  Actual Average Record
Temperature  
Mean Temperature 59 °F 65 °F  
Max Temperature 70 °F 77 °F 87 °F (2001)
Min Temperature 47 °F 54 °F 44 °F (1993)
Degree Days  
Heating Degree Days 6 0  
Month to date heating degree days 57 1  
Since 1 June heating degree days 142 146  
Since 1 July heating degree days 57 1  
Cooling Degree Days 0 2  
Month to date cooling degree days 57 56  
Year to date cooling degree days 131 106  
Since 1 June cooling degree days 113 96  
Growing Degree Days 10 (Base 50)    
Moisture  
Dew Point 52 °F    
Average Humidity 68    
Maximum Humidity 89    
Minimum Humidity 47    
Precipitation  
Precipitation 0.00 in 0.14 in 1.74 in (1967)
Month to date precipitation 2.80 3.25  
Year to date precipitation 24.79 24.90  
Sea Level Pressure  
Sea Level Pressure 30.01 in    
Wind  
Wind Speed 7 mph (NNW)    
Max Wind Speed 14 mph    
Max Gust Speed 20 mph    
Visibility 10 miles    
Events      
T = Trace of Precipitation, MM = Missing Value Source: NWS Daily Summary

Daily Weather History Graph

Daily Weather History Graph

Search for Another Location

Airport or City:

Trip Planner

Search our weather history database for the weather conditions in past years. The results will help you decide how hot, cold, wet, or windy it might be!

Date:

Astronomy

Jul. 24, 2014 Rise Set
Actual Time 6:00 AM EDT 8:40 PM EDT
Civil Twilight 5:28 AM EDT 9:12 PM EDT
Nautical Twilight 4:48 AM EDT 9:53 PM EDT
Astronomical Twilight 4:01 AM EDT 10:38 PM EDT
Moon 4:07 AM EDT (7/24) 6:54 PM EDT (7/24)
Length of Visible Light 15h 44m
Length of Day
14h 40m
Waning Crescent, 5% of the Moon is Illuminated
Jul 24
Waning Crescent
Jul 26
New
Aug 3
First Quarter
Aug 10
Full
Aug 17
Last Quarter

Hourly Weather History & Observations

Time (EDT) Temp. Dew Point Humidity Pressure Visibility Wind Dir Wind Speed Gust Speed Precip Events Conditions
12:29 AM 59.0 °F 55.0 °F 87% 30.02 in 10.0 mi North 10.4 mph - N/A   Mostly Cloudy
12:53 AM 59.0 °F 54.0 °F 83% 29.97 in 10.0 mi North 6.9 mph - N/A   Overcast
1:25 AM 59.0 °F 54.0 °F 83% 30.02 in 10.0 mi North 4.6 mph - N/A   Overcast
1:53 AM 59.0 °F 54.0 °F 83% 29.98 in 10.0 mi NNW 4.6 mph - N/A   Overcast
2:17 AM 59.0 °F 54.0 °F 83% 30.01 in 10.0 mi NNW 5.8 mph - N/A   Overcast
2:37 AM 59.0 °F 54.0 °F 83% 30.01 in 10.0 mi North 3.5 mph - N/A   Overcast
2:53 AM 57.9 °F 54.0 °F 87% 29.97 in 10.0 mi NNW 3.5 mph - N/A   Overcast
3:32 AM 57.0 °F 54.0 °F 89% 30.00 in 10.0 mi NNW 4.6 mph - N/A   Overcast
3:53 AM 57.0 °F 54.0 °F 89% 29.97 in 10.0 mi NNW 3.5 mph - N/A   Overcast
4:53 AM 57.0 °F 54.0 °F 89% 29.98 in 10.0 mi North 3.5 mph - N/A   Overcast
5:53 AM 55.0 °F 52.0 °F 89% 30.00 in 10.0 mi NNW 3.5 mph - N/A   Clear
6:50 AM 57.2 °F 53.6 °F 88% 30.03 in 10.0 mi North 6.9 mph - N/A   Mostly Cloudy
6:53 AM 57.0 °F 54.0 °F 89% 30.00 in 10.0 mi North 5.8 mph - N/A   Mostly Cloudy
7:10 AM 57.0 °F 55.0 °F 93% 30.03 in 10.0 mi North 4.6 mph - N/A   Mostly Cloudy
7:23 AM 57.0 °F 54.0 °F 89% 30.04 in 10.0 mi North 4.6 mph - N/A   Mostly Cloudy
7:34 AM 57.9 °F 54.0 °F 87% 30.04 in 10.0 mi NNW 4.6 mph - N/A   Overcast
7:53 AM 57.9 °F 54.0 °F 87% 30.02 in 10.0 mi NNW 4.6 mph - N/A   Overcast
8:53 AM 61.0 °F 54.0 °F 78% 30.01 in 10.0 mi NNW 6.9 mph - N/A   Mostly Cloudy
9:53 AM 61.0 °F 52.0 °F 72% 30.01 in 10.0 mi North 11.5 mph - N/A   Mostly Cloudy
10:53 AM 63.0 °F 51.1 °F 65% 30.03 in 10.0 mi North 9.2 mph - N/A   Overcast
11:53 AM 63.0 °F 48.9 °F 60% 30.04 in 10.0 mi North 11.5 mph - N/A   Mostly Cloudy
12:53 PM 64.9 °F 48.0 °F 54% 30.03 in 10.0 mi North 9.2 mph - N/A   Mostly Cloudy
1:53 PM 69.1 °F 48.9 °F 49% 30.02 in 10.0 mi North 11.5 mph - N/A   Mostly Cloudy
2:53 PM 69.1 °F 48.0 °F 47% 30.01 in 10.0 mi NNW 13.8 mph 17.3 mph N/A   Mostly Cloudy
3:53 PM 69.1 °F 48.9 °F 49% 30.00 in 10.0 mi North 10.4 mph - N/A   Scattered Clouds
4:53 PM 69.1 °F 48.9 °F 49% 30.00 in 10.0 mi North 11.5 mph 19.6 mph N/A   Scattered Clouds
5:53 PM 69.1 °F 48.9 °F 49% 30.00 in 10.0 mi North 10.4 mph - N/A   Mostly Cloudy
6:53 PM 66.9 °F 48.0 °F 51% 30.00 in 10.0 mi North 12.7 mph - N/A   Overcast
7:53 PM 63.0 °F 48.0 °F 58% 30.02 in 10.0 mi North 8.1 mph - N/A   Clear
8:53 PM 57.9 °F 48.9 °F 72% 30.01 in 10.0 mi North 3.5 mph - N/A   Clear
9:53 PM 54.0 °F 48.0 °F 80% 30.03 in 10.0 mi Calm Calm - N/A   Clear
10:53 PM 52.0 °F 48.0 °F 86% 30.05 in 10.0 mi Calm Calm - N/A   Clear
11:53 PM 50.0 °F 46.9 °F 89% 30.07 in 10.0 mi Calm Calm - N/A   Clear